Weather History for KHIE - January, 2014

Change the Weather History Date:

Saturday, January 25, 2014

  Actual Average Record
Temperature  
Mean Temperature 14 °F -  
Max Temperature 25 °F 21 °F 44 °F (1997)
Min Temperature 3 °F 0 °F -27 °F (2004)
Degree Days  
Heating Degree Days 51    
Moisture  
Dew Point 10 °F    
Average Humidity 68    
Maximum Humidity 89    
Minimum Humidity 39    
Precipitation  
Precipitation 0.00 in - - ()
Sea Level Pressure  
Sea Level Pressure 29.44 in    
Wind  
Wind Speed 5 mph (SSW)    
Max Wind Speed 18 mph    
Max Gust Speed 26 mph    
Visibility 6 miles    
Events Snow    
Averages and records for this station are not official NWS values.
T = Trace of Precipitation, MM = Missing Value Source: NWS Daily Summary

Daily Weather History Graph

Daily Weather History Graph

Search for Another Location

Airport or City:

Trip Planner

Search our weather history database for the weather conditions in past years. The results will help you decide how hot, cold, wet, or windy it might be!

Date:

Astronomy

Jan. 25, 2014 Rise Set
Actual Time 7:11 AM EST 4:45 PM EST
Civil Twilight 6:40 AM EST 5:17 PM EST
Nautical Twilight 6:04 AM EST 5:52 PM EST
Astronomical Twilight 5:30 AM EST 6:27 PM EST
Moon 1:39 AM EST (1/25) 11:44 AM EST (1/25)
Length of Visible Light 10h 37m
Length of Day
9h 34m
Waning Crescent, 34% of the Moon is Illuminated
Jan 25
Waning Crescent
Jan 30
New
Feb 6
First Quarter
Feb 14
Full
Feb 22
Last Quarter

Hourly Weather History & Observations

Time (EST) Temp. Windchill Dew Point Humidity Pressure Visibility Wind Dir Wind Speed Gust Speed Precip Events Conditions
12:52 AM 3.0 °F - -2.9 °F 76% 29.85 in 10.0 mi Calm Calm - N/A   Overcast
1:52 AM 6.1 °F - -0.0 °F 76% 29.81 in 10.0 mi Calm Calm - N/A   Scattered Clouds
2:52 AM 7.0 °F - 1.0 °F 77% 29.80 in 10.0 mi Calm Calm - N/A   Overcast
3:52 AM 12.0 °F 5.9 °F -2.0 °F 53% 29.75 in 10.0 mi Variable 3.5 mph - N/A   Overcast
4:52 AM 15.1 °F 7.7 °F -5.1 °F 41% 29.73 in 10.0 mi South 4.6 mph - N/A   Overcast
5:52 AM 16.0 °F 2.9 °F -5.1 °F 39% 29.70 in 10.0 mi South 11.5 mph 17.3 mph N/A   Overcast
6:52 AM 16.0 °F 3.6 °F -4.0 °F 41% 29.68 in 10.0 mi South 10.4 mph - N/A   Mostly Cloudy
7:52 AM 17.1 °F 4.3 °F -4.0 °F 39% 29.66 in 10.0 mi South 11.5 mph 21.9 mph N/A   Overcast
8:52 AM 17.1 °F 2.5 °F -2.9 °F 41% 29.65 in 10.0 mi South 15.0 mph 24.2 mph N/A   Overcast
9:52 AM 19.0 °F 13.9 °F 3.0 °F 50% 29.63 in 10.0 mi Variable 3.5 mph - N/A   Overcast
10:52 AM 21.0 °F 10.6 °F 5.0 °F 50% 29.60 in 10.0 mi South 9.2 mph 18.4 mph N/A   Overcast
11:52 AM 21.9 °F 7.3 °F 6.1 °F 51% 29.55 in 10.0 mi South 18.4 mph 25.3 mph N/A   Overcast
12:52 PM 23.0 °F 9.2 °F 8.1 °F 53% 29.49 in 10.0 mi South 17.3 mph 26.5 mph N/A   Overcast
1:52 PM 24.1 °F 11.5 °F 9.0 °F 53% 29.45 in 10.0 mi South 15.0 mph 21.9 mph N/A   Overcast
2:52 PM 24.1 °F 18.2 °F 10.9 °F 57% 29.41 in 9.0 mi Variable 4.6 mph 17.3 mph N/A   Overcast
3:52 PM 25.0 °F 15.5 °F 12.0 °F 58% 29.40 in 10.0 mi South 9.2 mph - N/A   Overcast
4:52 PM 25.0 °F 16.3 °F 15.1 °F 66% 29.36 in 5.0 mi South 8.1 mph - N/A   Haze
5:52 PM 24.1 °F 16.0 °F 16.0 °F 71% 29.33 in 6.0 mi SSE 6.9 mph - N/A   Haze
6:52 PM 24.1 °F 18.2 °F 17.1 °F 75% 29.33 in 4.0 mi NW 4.6 mph - 0.00 in Snow Light Snow
6:59 PM 23.0 °F 17.0 °F 17.1 °F 78% 29.27 in 1.8 mi WNW 4.6 mph - 0.00 in Snow Light Snow
7:28 PM 21.9 °F 14.5 °F 19.0 °F 89% 29.27 in 0.8 mi West 5.8 mph - 0.00 in Snow Light Snow
7:52 PM 21.9 °F 14.5 °F 18.0 °F 85% 29.32 in 0.8 mi West 5.8 mph - 0.00 in Snow Light Snow
8:02 PM 21.9 °F 13.4 °F 17.1 °F 82% 29.27 in 1.0 mi WSW 6.9 mph - 0.00 in Snow Light Snow
8:25 PM 21.9 °F 13.4 °F 17.1 °F 82% 29.26 in 1.2 mi SW 6.9 mph - 0.00 in Snow Light Snow
8:38 PM 21.9 °F 14.5 °F 17.1 °F 82% 29.25 in 1.8 mi WSW 5.8 mph - 0.00 in Snow Light Snow
8:52 PM 21.9 °F 17.2 °F 17.1 °F 82% 29.30 in 2.0 mi SW 3.5 mph - 0.00 in Snow Light Snow
9:00 PM 21.0 °F 14.6 °F 17.1 °F 85% 29.25 in 1.5 mi SW 4.6 mph - 0.00 in Snow Light Snow
9:19 PM 21.0 °F 16.2 °F 17.1 °F 85% 29.24 in 3.0 mi SSW 3.5 mph - 0.00 in   Overcast
9:52 PM 19.9 °F - 16.0 °F 85% 29.29 in 8.0 mi Calm Calm - 0.00 in   Mostly Cloudy
10:21 PM 19.9 °F 14.9 °F 16.0 °F 85% 29.23 in 1.8 mi SW 3.5 mph - 0.00 in Snow Light Snow
10:52 PM 19.9 °F 14.9 °F 15.1 °F 81% 29.27 in 1.8 mi SW 3.5 mph - 0.00 in Snow Light Snow
11:02 PM 19.9 °F 12.1 °F 15.1 °F 81% 29.22 in 2.0 mi SSW 5.8 mph - 0.00 in Snow Light Snow
11:25 PM 19.9 °F - 14.0 °F 78% 29.21 in 2.5 mi Calm Calm - 0.00 in Snow Light Snow
11:32 PM 19.9 °F 14.9 °F 14.0 °F 78% 29.20 in 3.0 mi Variable 3.5 mph - 0.00 in Snow Light Snow
11:52 PM 19.0 °F 13.9 °F 14.0 °F 81% 29.25 in 6.0 mi WSW 3.5 mph - 0.00 in   Haze